Regional Weather Roundup
Issued by NWS

Home | Current Version | Previous Version | Text Only | Print | Product List | Glossary On
Versions: 1 2 3 4 5 6 7 8 9 10 11 12 13 14 15 16 17 18 19 20 21 22 23 24 25 26 27 28 29 30 31 32 33 34 35 36 37 38 39 40 41 42 43 44 45 46 47 48 49 50
137
ASUS43 KTOP 201808
RWRKS

WEATHER ROUNDUP FOR KANSAS
NATIONAL WEATHER SERVICE GOODLAND KS
1200 PM CST SAT JAN 20 2018

NOTE:  "FAIR" INDICATES FEW OR NO CLOUDS BELOW 12,000 FEET WITH NO
SIGNIFICANT WEATHER AND/OR OBSTRUCTIONS TO VISIBILITY.

KSZ001>006-013>018-027>032-041>047-201900-
NORTHWEST KANSAS

CITY           SKY/WX    TMP DP  RH WIND       PRES   REMARKS
GOODLAND       SUNNY     44  30  57 N10       29.77F
6HR MIN TEMP:  20; 6HR MAX TEMP:  44;

HAYS           SUNNY     43  20  39 CALM      29.76F
HILL CITY      SUNNY     44  28  53 NE9       29.78S
6HR MIN TEMP:  20; 6HR MAX TEMP:  45;

RUSSELL        SUNNY     48  36  63 S12       29.76F
6HR MIN TEMP:  26; 6HR MAX TEMP:  48;

$$

KSZ061>065-074>080-084>089-201900-
SOUTHWEST KANSAS

CITY           SKY/WX    TMP DP  RH WIND       PRES   REMARKS
DODGE CITY     SUNNY     56  23  27 CALM      29.75F
6HR MIN TEMP:  26; 6HR MAX TEMP:  56;

ELKHART        SUNNY     74  29  19 SE3       29.75F
GARDEN CITY    SUNNY    N/A N/A N/A NW7       29.74F
GREAT BEND     SUNNY     52  36  54 S12       29.77F
LIBERAL        SUNNY     63  22  20 NW3       29.76F
PRATT          SUNNY     49  40  69 S14       29.78S
6HR MIN TEMP:  36; 6HR MAX TEMP:  49;

$$

KSZ066>073-081>083-090>101-201900-
SOUTHEAST KANSAS

CITY           SKY/WX    TMP DP  RH WIND       PRES   REMARKS
CHANUTE        CLOUDY    53  46  77 S16       29.88F
6HR MIN TEMP:  47; 6HR MAX TEMP:  53;

COFFEYVILLE    CLOUDY    55  48  77 S16       29.89F
6HR MIN TEMP:  49; 6HR MAX TEMP:  55;

HUTCHINSON     MOSUNNY   54  43  66 S21       29.79F
6HR MIN TEMP:  47; 6HR MAX TEMP:  55;

MEDICINE LODGE   N/A     52  42  69 S14G23    29.78F
NEWTON         CLOUDY    52  43  71 S22G28    29.80F
PARSONS        CLOUDY    54  48  80 S13       29.89F
6HR MIN TEMP:  48; 6HR MAX TEMP:  54;

WICHITA INTL   PTSUNNY   56  45  66 S20       29.80F
6HR MIN TEMP:  49; 6HR MAX TEMP:  56;

WICHITA JABRA  CLOUDY    53  44  71 S18G25    29.81F
6HR MIN TEMP:  48; 6HR MAX TEMP:  53;

WICHITA MCCONL CLOUDY    55  43  62 SW20G28   29.81F
WINFIELD       CLOUDY    55  45  68 S16G23    29.84F
6HR MIN TEMP:  49; 6HR MAX TEMP:  55;

$$

KSZ007>012-019>026-033>040-048>060-102>105-201900-
NORTHEAST KANSAS

CITY           SKY/WX    TMP DP  RH WIND       PRES   REMARKS
CONCORDIA      CLOUDY    48  41  76 SW8       29.80F
6HR MIN TEMP:  25; 6HR MAX TEMP:  48;

EMPORIA        CLOUDY    50  43  77 S16       29.84F
6HR MIN TEMP:  44; 6HR MAX TEMP:  50;

LAWRENCE       CLOUDY    50  45  83 SE10      29.88F
6HR MIN TEMP:  41; 6HR MAX TEMP:  51;

MANHATTAN      CLOUDY    54  43  66 SW14      29.82F
6HR MIN TEMP:  46; 6HR MAX TEMP:  54;

MARYSVILLE     CLOUDY    48  43  81 S7        29.82F
OLATHE IND     CLOUDY    50  44  80 S15       29.89F
6HR MIN TEMP:  44; 6HR MAX TEMP:  50;

OLATHE EXE     CLOUDY    49  44  83 S12       29.89F
6HR MIN TEMP:  44; 6HR MAX TEMP:  49;

SALINA         PTSUNNY   54  45  71 S13G21    29.80F
6HR MIN TEMP:  37; 6HR MAX TEMP:  54;

TOPEKA BILLARD CLOUDY    52  46  80 S9        29.86F
6HR MIN TEMP:  40; 6HR MAX TEMP:  52;

TOPEKA FORBES  CLOUDY    52  45  77 S15       29.85F
6HR MIN TEMP:  44; 6HR MAX TEMP:  52;

$$




USA.gov is the U.S. government's official web portal to all federal, state and local government web resources and services.